timestamp,surface_pressure_avg,surface_temp_avg,battery_voltage,lat,long
2022-08-24 00:09:00+00:00,299.543,18.98,11.53,47.84626,-54.09684
2022-08-24 00:19:01+00:00,292.778,18.96,11.53,47.84626,-54.09684
2022-08-24 00:29:01+00:00,289.1714,18.94,11.53,47.84626,-54.09684
2022-08-24 00:39:01+00:00,286.6863,18.9,11.53,47.84626,-54.09684
2022-08-24 00:49:01+00:00,280.2797,18.89,11.53,47.84626,-54.09684
2022-08-24 00:59:01+00:00,274.8114,18.88,11.53,47.84626,-54.09684
2022-08-24 01:09:01+00:00,272.4931,18.89,11.53,47.84626,-54.09684
2022-08-24 01:19:01+00:00,268.9381,18.9,11.53,47.84626,-54.09684
2022-08-24 01:29:01+00:00,263.2098,18.9,11.53,47.84626,-54.09684
2022-08-24 01:39:01+00:00,259.0664,18.9,11.53,47.84626,-54.09684
2022-08-24 01:49:01+00:00,256.8398,18.9,11.53,47.84626,-54.09684
2022-08-24 01:59:01+00:00,247.9081,18.96,11.53,47.84626,-54.09684
2022-08-24 02:09:01+00:00,238.9581,19.0,11.53,47.84626,-54.09684
2022-08-24 02:19:01+00:00,236.1481,19.0,11.53,47.84626,-54.09684
2022-08-24 02:29:01+00:00,237.4931,19.0,11.53,47.84626,-54.09684
2022-08-24 02:39:01+00:00,234.8381,19.0,11.53,47.84626,-54.09684
2022-08-24 02:49:01+00:00,226.6414,19.0,11.53,47.84626,-54.09684
2022-08-24 02:59:01+00:00,221.1164,19.0,11.53,47.84626,-54.09684
2022-08-24 03:09:01+00:00,222.8131,19.0,11.53,47.84626,-54.09684
2022-08-24 03:19:01+00:00,227.1964,19.0,11.46,47.84626,-54.09684
2022-08-24 03:29:01+00:00,225.2931,19.0,11.46,47.84626,-54.09684
2022-08-24 03:39:01+00:00,218.5447,19.0,11.46,47.84626,-54.09684
2022-08-24 03:49:01+00:00,219.213,19.0,11.46,47.84626,-54.09684
2022-08-24 03:59:01+00:00,221.3881,19.04,11.46,47.84626,-54.09684
2022-08-24 04:09:01+00:00,217.7181,19.07,11.46,47.84626,-54.09684
2022-08-24 04:19:00+00:00,216.9081,19.06,11.46,47.84626,-54.09684
2022-08-24 04:29:00+00:00,220.9714,19.05,11.46,47.84626,-54.09684
2022-08-24 04:39:00+00:00,220.2065,19.07,11.46,47.84626,-54.09684
2022-08-24 04:49:00+00:00,219.2347,19.09,11.46,47.84626,-54.09684
2022-08-24 04:59:00+00:00,224.0998,19.09,11.46,47.84626,-54.09684
2022-08-24 05:09:00+00:00,227.1098,19.09,11.46,47.84626,-54.09684
2022-08-24 05:19:00+00:00,224.6764,19.08,11.46,47.84626,-54.09684
2022-08-24 05:29:00+00:00,223.0231,19.08,11.46,47.84626,-54.09684
2022-08-24 05:39:00+00:00,229.2314,19.06,11.46,47.84626,-54.09684
2022-08-24 05:49:00+00:00,235.4865,19.0,11.46,47.84626,-54.09684
2022-08-24 05:59:00+00:00,235.5415,19.0,11.46,47.84626,-54.09684
2022-08-24 06:09:00+00:00,236.4565,19.04,11.46,47.84626,-54.09684
2022-08-24 06:19:00+00:00,241.6081,19.05,11.46,47.84626,-54.09684
2022-08-24 06:29:00+00:00,247.7264,19.05,11.46,47.84626,-54.09684
2022-08-24 06:39:00+00:00,247.1564,19.05,11.46,47.84626,-54.09684
2022-08-24 06:49:00+00:00,251.8048,19.07,11.46,47.84626,-54.09684
2022-08-24 06:59:00+00:00,260.5398,19.06,11.46,47.84626,-54.09684
2022-08-24 07:09:00+00:00,265.2614,19.05,11.46,47.84626,-54.09684
2022-08-24 07:19:00+00:00,263.8665,19.09,11.46,47.84626,-54.09684
2022-08-24 07:29:00+00:00,268.6731,19.1,11.46,47.84626,-54.09684
2022-08-24 07:39:00+00:00,275.5397,19.1,11.46,47.84626,-54.09684
2022-08-24 07:49:00+00:00,279.7347,19.0,11.46,47.84626,-54.09684
2022-08-24 07:59:00+00:00,278.468,19.03,11.46,47.84626,-54.09684
2022-08-24 08:09:00+00:00,282.3214,19.05,11.46,47.84626,-54.09684
2022-08-24 08:19:00+00:00,289.628,19.06,11.46,47.84626,-54.09684
2022-08-24 08:29:00+00:00,292.173,19.09,11.46,47.84626,-54.09684
2022-08-24 08:39:00+00:00,287.313,19.1,11.46,47.84626,-54.09684
2022-08-24 08:49:00+00:00,290.7414,19.1,11.46,47.84626,-54.09684
2022-08-24 08:59:00+00:00,294.5347,19.1,11.46,47.84626,-54.09684
2022-08-24 09:09:00+00:00,294.7347,19.1,11.46,47.84626,-54.09684
2022-08-24 09:19:01+00:00,290.3397,19.1,11.46,47.84626,-54.09684
2022-08-24 09:29:01+00:00,294.7664,19.1,11.46,47.84626,-54.09684
2022-08-24 09:39:01+00:00,298.5897,19.1,11.46,47.84626,-54.09684
2022-08-24 09:49:01+00:00,298.8513,19.1,11.46,47.84626,-54.09684
2022-08-24 09:59:01+00:00,294.923,19.1,11.46,47.84626,-54.09684
2022-08-24 10:09:01+00:00,293.0947,19.1,11.46,47.84626,-54.09684
2022-08-24 10:19:00+00:00,294.2596,19.1,11.46,47.84626,-54.09684
2022-08-24 10:29:00+00:00,294.973,19.1,11.46,47.84626,-54.09684
2022-08-24 10:39:00+00:00,296.7597,19.1,11.46,47.84626,-54.09684
2022-08-24 10:49:00+00:00,298.3364,19.1,11.46,47.84626,-54.09684
2022-08-24 10:59:00+00:00,295.08799999999997,19.1,11.46,47.84626,-54.09684
2022-08-24 11:09:00+00:00,292.1946,19.1,11.46,47.84626,-54.09684
2022-08-24 11:19:01+00:00,291.5764,19.1,11.37,47.84626,-54.09684
2022-08-24 11:29:01+00:00,291.063,19.1,11.37,47.84626,-54.09684
2022-08-24 11:39:01+00:00,290.4614,19.1,11.37,47.84626,-54.09684
2022-08-24 11:49:01+00:00,289.8597,19.1,11.37,47.84626,-54.09684
2022-08-24 11:59:01+00:00,287.8281,19.1,11.37,47.84626,-54.09684
2022-08-24 12:09:01+00:00,281.3848,19.1,11.37,47.84626,-54.09684
2022-08-24 12:19:01+00:00,277.0198,19.1,11.46,47.84626,-54.09684
2022-08-24 12:29:01+00:00,276.6498,19.1,11.46,47.84626,-54.09684
2022-08-24 12:39:01+00:00,273.7581,19.1,11.46,47.84626,-54.09684
2022-08-24 12:49:01+00:00,264.8231,19.1,11.46,47.84626,-54.09684
2022-08-24 12:59:01+00:00,254.3115,19.1,11.46,47.84626,-54.09684
2022-08-24 13:09:01+00:00,250.5797,19.1,11.46,47.84626,-54.09684
2022-08-24 13:19:01+00:00,246.0998,19.1,11.46,47.84626,-54.09684
2022-08-24 13:29:01+00:00,239.0548,19.1,11.46,47.84626,-54.09684
2022-08-24 13:39:01+00:00,233.2047,19.1,11.46,47.84626,-54.09684
2022-08-24 13:49:01+00:00,228.8448,19.1,11.46,47.84626,-54.09684
2022-08-24 13:59:01+00:00,222.2698,19.1,11.46,47.84626,-54.09684
2022-08-24 14:09:01+00:00,219.0031,19.1,11.46,47.84626,-54.09684
2022-08-24 14:19:00+00:00,217.6081,19.11,11.53,47.84626,-54.09684
2022-08-24 14:29:00+00:00,213.4215,19.16,11.53,47.84626,-54.09684
2022-08-24 14:39:00+00:00,210.2415,19.17,11.53,47.84626,-54.09684
2022-08-24 14:49:00+00:00,208.2548,19.17,11.53,47.84626,-54.09684
2022-08-24 14:59:00+00:00,205.0148,19.19,11.53,47.84626,-54.09684
2022-08-24 15:09:00+00:00,202.5081,19.2,11.53,47.84626,-54.09684
2022-08-24 15:19:00+00:00,203.0265,19.2,11.53,47.84626,-54.09684
2022-08-24 15:29:00+00:00,202.7548,19.2,11.53,47.84626,-54.09684
2022-08-24 15:39:00+00:00,204.4081,19.2,11.53,47.84626,-54.09684
2022-08-24 15:49:00+00:00,208.0631,19.2,11.53,47.84626,-54.09684
2022-08-24 15:59:00+00:00,208.4648,19.2,11.53,47.84626,-54.09684
2022-08-24 16:09:00+00:00,208.4798,19.2,11.53,47.84626,-54.09684
2022-08-24 16:19:01+00:00,206.9015,19.2,11.53,47.84626,-54.09684
2022-08-24 16:29:01+00:00,206.1998,19.2,11.53,47.84626,-54.09684
2022-08-24 16:39:01+00:00,207.4048,19.22,11.53,47.84626,-54.09684
2022-08-24 16:49:01+00:00,209.4464,19.29,11.53,47.84626,-54.09684
2022-08-24 16:59:01+00:00,212.0031,19.3,11.53,47.84626,-54.09684
2022-08-24 17:09:01+00:00,216.5365,19.3,11.53,47.84626,-54.09684
2022-08-24 17:19:00+00:00,220.4731,19.3,11.53,47.84626,-54.09684
2022-08-24 17:29:00+00:00,224.4231,19.35,11.53,47.84626,-54.09684
2022-08-24 17:39:00+00:00,229.3581,19.34,11.53,47.84626,-54.09684
2022-08-24 17:49:00+00:00,231.7415,19.36,11.53,47.84626,-54.09684
2022-08-24 17:59:00+00:00,236.1447,19.4,11.53,47.84626,-54.09684
2022-08-24 18:09:00+00:00,240.9314,19.4,11.53,47.84626,-54.09684
2022-08-24 18:19:00+00:00,246.0648,19.4,11.53,47.84626,-54.09684
2022-08-24 18:29:00+00:00,251.1298,19.4,11.53,47.84626,-54.09684
2022-08-24 18:39:00+00:00,254.8898,19.4,11.53,47.84626,-54.09684
2022-08-24 18:49:00+00:00,257.4314,19.47,11.53,47.84626,-54.09684
2022-08-24 18:59:00+00:00,260.2997,19.49,11.53,47.84626,-54.09684
2022-08-24 19:09:00+00:00,264.0498,19.5,11.53,47.84626,-54.09684
2022-08-24 19:19:01+00:00,266.8297,19.5,11.53,47.84626,-54.09684
2022-08-24 19:29:01+00:00,269.9464,19.5,11.53,47.84626,-54.09684
2022-08-24 19:39:01+00:00,276.3947,19.5,11.53,47.84626,-54.09684
2022-08-24 19:49:01+00:00,283.4363,19.43,11.53,47.84626,-54.09684
2022-08-24 19:59:01+00:00,287.3813,19.41,11.53,47.84626,-54.09684
2022-08-24 20:09:01+00:00,291.2347,19.46,11.53,47.84626,-54.09684
2022-08-24 20:19:01+00:00,299.5831,19.43,11.53,47.84626,-54.09684
2022-08-24 20:29:01+00:00,305.5746,19.4,11.53,47.84626,-54.09684
2022-08-24 20:39:01+00:00,306.403,19.42,11.53,47.84626,-54.09684
2022-08-24 20:49:01+00:00,309.7697,19.4,11.53,47.84626,-54.09684
2022-08-24 20:59:01+00:00,317.5297,19.4,11.53,47.84626,-54.09684
2022-08-24 21:09:01+00:00,320.348,19.4,11.53,47.84626,-54.09684
2022-08-24 21:19:01+00:00,319.0796,19.46,11.46,47.84626,-54.09684
2022-08-24 21:29:01+00:00,321.843,19.49,11.46,47.84626,-54.09684
2022-08-24 21:39:01+00:00,329.3413,19.49,11.46,47.84626,-54.09684
2022-08-24 21:49:01+00:00,331.42800000000005,19.48,11.46,47.84626,-54.09684
2022-08-24 21:59:01+00:00,333.6364,19.45,11.46,47.84626,-54.09684
2022-08-24 22:09:01+00:00,337.0646,19.41,11.46,47.84626,-54.09684
2022-08-24 22:19:01+00:00,339.9079,19.4,11.46,47.84626,-54.09684
2022-08-24 22:29:01+00:00,340.7196,19.4,11.46,47.84626,-54.09684
2022-08-24 22:39:01+00:00,340.7813,19.4,11.46,47.84626,-54.09684
2022-08-24 22:49:01+00:00,344.898,19.4,11.46,47.84626,-54.09684
2022-08-24 22:59:01+00:00,342.5764,19.41,11.46,47.84626,-54.09684
2022-08-24 23:09:01+00:00,340.5613,19.48,11.46,47.84626,-54.09684
2022-08-24 23:19:00+00:00,339.0197,19.5,11.46,47.84626,-54.09684
2022-08-24 23:29:00+00:00,340.6163,19.5,11.46,47.84626,-54.09684
2022-08-24 23:39:00+00:00,338.023,19.5,11.46,47.84626,-54.09684
2022-08-24 23:49:00+00:00,330.9380000000001,19.5,11.46,47.84626,-54.09684
2022-08-24 23:59:00+00:00,324.733,19.5,11.46,47.84626,-54.09684
